Powrót do katalogu

SL-8 DEB

AktywnyPO
NORAD 27737·DEBRIS·🇷🇺 Russia

Wystrzelony Dec 17, 1981 z Plesetsk Cosmodrome

Loading…

Następne Przeloty (najbliższe 24 godziny)

TLE

ŚwieżeSource: Space-Track

Epoka: Sep 13, 2026, 12:55 UTC

1 27737U 81120J   26256.53822608  .00000100  00000-0  10169-2 0  9993
2 27737  82.9638 348.7596 0025908 284.8866  89.5577 12.08197987580222

Śledź SL-8 DEB w czasie rzeczywistym z AllMySat

Download on the App Store